Regional Weather Roundup
Issued by NWS

Home | Current Version | Previous Version | Graphics & Text | Print | Product List | Glossary On
Versions: 1 2 3 4 5 6 7 8 9 10 11 12 13 14 15 16 17 18 19 20 21 22 23 24 25 26 27 28 29 30 31 32 33 34 35 36 37 38 39 40 41 42 43 44 45 46 47 48 49 50
000
ASUS43 KTOP 291359
RWRKS

WEATHER ROUNDUP FOR KANSAS
NATIONAL WEATHER SERVICE GOODLAND KS
800 AM CST MON DEC 29 2014

NOTE:  "FAIR" INDICATES FEW OR NO CLOUDS BELOW 12,000 FEET WITH NO
SIGNIFICANT WEATHER AND/OR OBSTRUCTIONS TO VISIBILITY.

KSZ001>006-013>018-027>032-041>047-291500-
NORTHWEST KANSAS

CITY           SKY/WX    TMP DP  RH WIND       PRES   REMARKS
GOODLAND       FOG       18  17  96 N10       30.11R VSB 3/4 WCI   6
HAYS           CLEAR     18   9  68 NE7       30.19R
HILL CITY      CLEAR     15  12  88 NE5       30.20R
RUSSELL        CLEAR     19  17  92 NE8       30.20R
$$

KSZ061>065-074>080-084>089-291500-
SOUTHWEST KANSAS

CITY           SKY/WX    TMP DP  RH WIND       PRES   REMARKS
DODGE CITY     CLEAR     16  11  80 N7        30.12R
ELKHART          N/A     16  10  77 N6          N/A
GARDEN CITY    CLEAR     13  11  92 N9        30.10R
GREAT BEND     CLEAR     19  10  68 E3        30.19R
LIBERAL        CLEAR     16   9  73 N7        30.08R
$$

KSZ066>073-081>083-090>101-291500-
SOUTHEAST KANSAS

CITY           SKY/WX    TMP DP  RH WIND       PRES   REMARKS
CHANUTE        FAIR      20  17  88 E3        30.22R
COFFEYVILLE    CLEAR     22  20  92 NE3       30.22R
HUTCHINSON     CLEAR     20  15  81 NE5       30.19R
MEDICINE LODGE   N/A     24  20  84 E6        30.15R
NEWTON         CLEAR     21  12  68 NE7       30.19S
PARSONS        CLEAR     25  22  88 VRB3      30.23R
WICHITA INTL   PTCLDY    24  18  77 NE7       30.18R
WICHITA JABRA  FAIR      18  15  88 NE5       30.18R
WINFIELD       CLEAR     24  21  88 NE7       30.20R
$$

KSZ007>012-019>026-033>040-048>060-102>105-291500-
NORTHEAST KANSAS

CITY           SKY/WX    TMP DP  RH WIND       PRES   REMARKS
CONCORDIA      PTCLDY    22  21  96 N6        30.24R FOG
EMPORIA        CLEAR     18  16  92 NE6       30.22R
LAWRENCE       CLEAR     18  15  88 NW3       30.28R
MANHATTAN      PTCLDY    22  19  89 CALM      30.26R
OLATHE IND     CLEAR     25  20  81 E6        30.27R
OLATHE EXE     CLEAR     25  20  81 CALM      30.26R
SALINA         PTCLDY    23  17  78 NE3       30.23R
TOPEKA BILLARD PTCLDY    22  19  89 CALM      30.28R
TOPEKA FORBES  PTCLDY    21  17  84 CALM      30.25R
$$


USA.gov is the U.S. government's official web portal to all federal, state and local government web resources and services.